Location: Ceske Budejovice
(48.9830°N, 14.4670°E)
Time: 17:49:20
(UTC+02:00)

ISS - Visible Passes

Search period start: 19 September 2020 00:00
Search period end: 29 September 2020 00:00
Orbit: 419 x 420 km, 51.6° (Epoch: 19 September)

Date Brightness Start Highest point End Pass type
(mag) Time Alt. Az. Time Alt. Az. Time Alt. Az.
19 Sep -3.8 20:52:44 10° SW 20:56:03 62° SSE 20:56:08 62° SE visible
20 Sep -3.3 20:05:32 10° SW 20:08:44 43° SSE 20:10:54 18° E visible
20 Sep -1.7 21:42:10 10° W 21:43:53 27° W 21:43:53 27° W visible
21 Sep -3.7 20:54:42 10° WSW 20:58:04 75° NNW 20:58:30 62° NE visible
22 Sep -3.8 20:07:17 10° WSW 20:10:39 86° SSE 20:13:01 18° ENE visible
22 Sep -1.5 21:44:20 10° W 21:45:59 25° WNW 21:45:59 25° WNW visible
23 Sep -3.3 20:56:50 10° W 21:00:10 54° N 21:00:25 52° NNE visible
24 Sep -3.4 20:09:19 10° W 20:12:40 62° N 20:14:49 20° ENE visible
24 Sep -1.2 21:46:25 10° WNW 21:47:46 22° WNW 21:47:46 22° WNW visible
25 Sep -3.6 19:21:49 10° WSW 19:25:11 74° NNW 19:28:34 10° ENE visible
25 Sep -3.2 20:58:56 10° WNW 21:02:07 52° N 21:02:07 52° N visible
26 Sep -3.2 20:11:25 10° W 20:14:43 51° N 20:16:26 25° ENE visible
26 Sep -0.9 21:48:21 10° WNW 21:49:23 18° WNW 21:49:23 18° WNW visible
27 Sep -3.2 19:23:52 10° W 19:27:11 54° N 19:30:31 10° ENE visible
27 Sep -3.1 21:00:53 10° WNW 21:03:41 53° NW 21:03:41 53° NW visible
28 Sep -3.4 20:13:24 10° WNW 20:16:44 57° N 20:17:59 33° ENE visible
28 Sep -0.7 21:50:17 10° WNW 21:50:56 15° WNW 21:50:56 15° WNW visible
